Torna al catalogo

STARLINK-35783

AttivoComunicazioniVLEO
NORAD 66286·PAYLOAD·🇺🇸 United States

Lanciato Oct 31, 2025 da Vandenberg Space Force Base

Loading…

Prossimi Passaggi (prossime 24 ore)

TLE

AggiornatoSource: CelesTrak SupGP

Epoca: Sep 14, 2026, 22:37 UTC

1 66286C 25247X   26257.94284722  .00003276  00000+0  96822-4 0  2573
2 66286  53.1590  29.9335 0001246  81.2591 278.7919 15.34379151    16

Traccia STARLINK-35783 in tempo reale con AllMySat

Download on the App Store